Find Local Weather

World > North America > United States > Idaho

Stites, Idaho Regional Weather

Lat: 46.09N, Lon: 115.98W
Wx Zone: IDZ007
Feedback
Expires:201812171700;;935346
ASUS45 KBOI 171610
RWRID 

IDAHO REGIONAL WEATHER ROUNDUP
NATIONAL WEATHER SERVICE BOISE ID
900 AM MST MON DEC 17 2018

NOTE: "FAIR" INDICATES FEW OR NO CLOUDS BELOW 12000 FEET
WITH NO SIGNIFICANT WEATHER AND/OR OBSTRUCTIONS TO VISIBILITY


IDZ002-004-006-007-026-171700-
NORTHERN IDAHO

  
CITY           SKY/WX    TMP DP  RH WIND       PRES   REMARKS
LEWISTON       CLOUDY   N/A N/A N/A CALM      30.02R                  
LOWELL           N/A     34  33  96 CALM      30.09R                  
COEUR D'ALENE  CLOUDY    39  38  96 S5        29.98R                  
MULLAN PASS    SNOW      30  28  92 VRB3      29.93R VSB 1/2          
$$
  

SKY/WX - Weather  TMP - Temperature  DP - Dew Point  RH - Relative Humidity
WIND - Wind Direction/Speed PRES - Barometric Pressure